Orbital elements:  2024-030A = NORAD 58963 = IM-1
   Perigee 2024 Feb 15.2836063 +/- 5.65e-5 TT =  6:48:23.58 (JD 2460355.7836063)
Epoch 2024 Feb 16.0 TT = JDT 2460356.5                           Find_Orb
M  22.9459510404 +/- 0.0041         (J2000 equator)
n  32.0298057493 +/- 0.00358        Peri.  239.7673477 +/- 0.0006
a211950.26780 +/- 15.8              Node    67.8282283 +/- 0.00053
e   0.968878013 +/- 3.71e-6         Incl.   28.6723959 +/- 0.00023
P  11.2393d                H 28.95  G  0.15   U  9.0
q 6596.3134085 +/- 0.448    Q 417304.22219 +/- 31.8
72 of 80 observations 2024 Feb. 16-17 (22.1 hr); mean residual 0".339
Residuals in arcseconds: 
240215 L54(10.3- 1.87+)   240216 V17 .087+ 9.8m+    240216 M44 .060- .368-    
240215 L54(10.1- 1.92+)   240216 U94 4.3m+ 1.11+    240216 M44 .132- .692-    
240215 L54(10.4- 1.98+)   240216 U94 8.3m- .461-    240216 M44 .050+ .496-    
240215 L54(9.88- 1.98+)   240216 V17 .079- .067+    240216 M44 .347+ .087-    
240215 L54(9.19- 2.74+)   240216 V17 .027+ .110-    240216 M44 .278+ 1.00-    
240216 V16 .310- .124-    240216 V17 .017+ .113-    240216 M44 .493+ .267-    
240216 V16 .108- .480+    240216 U94(22.6- 16.3-)   240216 M44 .386- .735-    
240216 V16 .189- .507+    240216 M44 .018+ .110-    240216 M44 .543+ .752-    
240216 V16 .332- .384+    240216 M44 .313+ .247-    240216 M44 .157+ .048-    
240216 V16 .529- .595+    240216 M44 .269+ .164-    240216 M44 .147+ .793-    
240216 V16 .260+ .263-    240216 M44 .310+ .279-    240216 L54(.507+ 1.81-)   
240216 V17 1.6m- .023+    240216 M44 .453+ .273-    240216 L54 .022- .071+    
240216 V16 .208+ .448+    240216 M44 .285+ .286-    240216 L54 7.7m- .097+    
240216 V17 8.9m- .026-    240216 M44 .457+ .278-    240216 L54 .029+ 8.1m+    
240216 V17 .090+ .214-    240216 M44 .529+ .238-    240216 L54 .475+ .021-    
240216 V16 .083+ .335+    240216 M44 .124- .077-    240216 Y05 .049- .216-    
240216 V17(.180- 6.8m+)   240216 M44 .468+ .516-    240216 L54 .035- .169+    
240216 V17 .098- .063-    240216 M44 .669+ .723-    240216 Y05 .015- .251+    
240216 V17 .135- .023-    240216 M44 .452+ .239-    240216 Y05 .280- .028-    
240216 V17 .023+ .046-    240216 M44 .514+ .233-    240216 L54 .252+ .067+    
240216 V16 2.8m+ .122-    240216 M44 .510+ .217-    240216 Y05 .214- .074+    
240216 V17 .025+ .057-    240216 M44 .419+ .279-    240216 Y05 .077- .075-    
240216 V17 .010+ .147-    240216 M44 .514+ .470-    240217 Y05 .512- .113+    
240216 V17 .058- .216+    240216 M44 .130+ .570-    240217 L54 .762+ .118-    
240216 V17 .105- .041+    240216 M44 .336+ .219-    240217 Y05 .122+ .128+    
240216 V17 .090- .089+    240216 M44 .293+ .527-    240217 L54 .313+ .615+    
240216 V17 .014+ 9.5m-    240216 M44 .276+ .803-    

Ephemerides (geocentric):
Date (UTC) HH   RA             Dec           delta elong  mag " sig PA
---- --------  ------------   ------------  ------ -----  --- --------
2024 02 15 07  00 41 35.350   -24 42 26.67    8713  41.6 14??  924  75
2024 02 15 08  04 37 55.161   +00 55 28.35   26807 101.3 12.9 90.6  62
2024 02 15 09  05 24 15.059   +07 09 03.14   41652 113.9 13.5 34.7  63
2024 02 15 10  05 47 40.293   +10 09 04.47   54373 120.1 13.9 18.7  64
2024 02 15 11  06 02 46.086   +12 00 16.42   65736 124.0 14.2 11.8  65
2024 02 15 12  06 13 41.245   +13 17 56.03   76127 126.7 14.4 8.01  66
2024 02 15 13  06 22 08.321   +14 16 18.23   85774 128.8 14.6 5.73  67
2024 02 15 14  06 28 58.707   +15 02 22.43   94820 130.5 14.8 4.25  67
2024 02 15 15  06 34 41.533   +15 40 01.64  103369 131.9 14.9 3.21  68
2024 02 15 16  06 39 34.773   +16 11 37.05  111493 133.0 15.1 2.47  69
2024 02 15 17  06 43 50.238   +16 38 39.92  119249 134.0 15.2 1.92  70
2024 02 15 18  06 47 36.074   +17 02 12.19  126680 134.9 15.3 1.50  71
2024 02 15 19  06 50 58.112   +17 22 57.64  133822 135.7 15.4 1.17  72
2024 02 15 20  06 54 00.663   +17 41 28.20  140703 136.4 15.5 .912  73
2024 02 15 21  06 56 46.996   +17 58 07.77  147347 137.0 15.6 .707  74
2024 02 15 22  06 59 19.643   +18 13 14.70  153773 137.5 15.6 .542  76
2024 02 15 23  07 01 40.602   +18 27 03.31  159999 138.1 15.7 .409  78
2024 02 16 00  07 03 51.477   +18 39 44.95  166040 138.5 15.8 .301  81
2024 02 16 01  07 05 53.571   +18 51 28.81  171907 139.0 15.8 .214  85
2024 02 16 02  07 07 47.960   +19 02 22.37  177613 139.4 15.9 .144  91
2024 02 16 03  07 09 35.537   +19 12 31.80  183166 139.7 16.0 .091 104
2024 02 16 04  07 11 17.053   +19 22 02.27  188576 140.1 16.0 .055 130
2024 02 16 05  07 12 53.148   +19 30 58.12  193851 140.4 16.1 .046 174
2024 02 16 06  07 14 24.365   +19 39 23.03  198997 140.7 16.1 .059  26
2024 02 16 07  07 15 51.175   +19 47 20.16  204021 141.0 16.2 .076  40
2024 02 16 08  07 17 13.984   +19 54 52.23  208929 141.3 16.2 .091  48
2024 02 16 09  07 18 33.148   +20 02 01.58  213726 141.5 16.2 .102  52
2024 02 16 10  07 19 48.978   +20 08 50.28  218416 141.8 16.3 .110  55
2024 02 16 11  07 21 01.748   +20 15 20.11  223004 142.0 16.3 .114  58
2024 02 16 12  07 22 11.702   +20 21 32.68  227494 142.2 16.4 .115  59
2024 02 16 13  07 23 19.056   +20 27 29.37  231889 142.4 16.4 .114  61
2024 02 16 14  07 24 24.002   +20 33 11.44  236194 142.6 16.4 .110  62
2024 02 16 15  07 25 26.714   +20 38 40.00  240411 142.8 16.5 .104  63
2024 02 16 16  07 26 27.348   +20 43 56.05  244543 143.0 16.5 .097  64
2024 02 16 17  07 27 26.045   +20 49 00.48  248593 143.2 16.5 .087  65
2024 02 16 18  07 28 22.932   +20 53 54.10  252564 143.3 16.5 .076  67
2024 02 16 19  07 29 18.124   +20 58 37.64  256458 143.5 16.6 .064  68
2024 02 16 20  07 30 11.728   +21 03 11.76  260277 143.7 16.6 .050  70
2024 02 16 21  07 31 03.839   +21 07 37.07  264023 143.8 16.6 .036  74
2024 02 16 22  07 31 54.545   +21 11 54.12  267699 144.0 16.7 .021  83
2024 02 16 23  07 32 43.929   +21 16 03.41  271306 144.1 16.7 7.8m 131
2024 02 17 00  07 33 32.063   +21 20 05.41  274845 144.2 16.7 .016  37

   RA/decs are astrometric J2000 coordinates (corrected for light
time lag,  but in the inertial J2000 frame,  i.e.,  not rotated
for precession or nutation,  and differential light deflection is
not included.)   Display can be turned on/off in the 'advanced
options' for ephemerides.  When turning them on,  you can select
from various format choices (base-60,  decimal, different
precisions,  etc.)

   Distances are in kilometers for distances under one million km
(about 0.00668 AU),  and in AUs for larger distances.

   Uncertainties are one-sigma values shown in arcseconds (unless they
are very large, in which case they are shown in arcminutes or degrees).
In theory,  the object should be within this distance of the nominal
RA/dec 67% of the time,  within twice that distance 95% of the time,
and within three times that distance 99.7% of the time.  In practice,
astrometric errors are not actually Gaussian,  which means these
uncertainties are sometimes over- or underestimated.  So you may have
to look farther,  or not nearly as far,  as the uncertainties say.

